| time (UTC) | temp F | wind direction | speed knots | gust knots | rain 1hr in | rain 24hr in | rain mn in | humidity % | barometer mb |
| 20260902194746 | 93 | 204 | 7.0 | 12.2 | 0.00 | 0.00 | 0.00 | 34 | 1017.1 |
| 20260902194241 | 93 | 197 | 9.6 | 15.6 | 0.00 | 0.00 | 0.00 | 34 | 1017.0 |
| 20260902193737 | 94 | 219 | 16.5 | 18.2 | 0.00 | 0.00 | 0.00 | 34 | 1017.2 |
| 20260902193232 | 94 | 210 | 9.6 | 12.2 | 0.00 | 0.00 | 0.00 | 34 | 1017.1 |
| 20260902192731 | 93 | 227 | 5.2 | 13.0 | 0.00 | 0.00 | 0.00 | 34 | 1017.3 |
| 20260902192230 | 95 | 209 | 7.0 | 12.2 | 0.00 | 0.00 | 0.00 | 33 | 1017.2 |
| 20260902191725 | 96 | 210 | 12.2 | 16.5 | 0.00 | 0.00 | 0.00 | 32 | 1017.3 |
| 20260902191219 | 94 | 215 | 13.9 | 22.6 | 0.00 | 0.00 | 0.00 | 34 | 1017.5 |
| 20260902190714 | 93 | 245 | 3.5 | 14.8 | 0.00 | 0.00 | 0.00 | 36 | 1017.6 |
| 20260902190209 | 95 | 188 | 10.4 | 13.9 | 0.00 | 0.00 | 0.00 | 34 | 1017.8 |
| 20260902185705 | 94 | 206 | 11.3 | 15.6 | 0.00 | 0.00 | 0.00 | 33 | 1017.9 |
| 20260902185202 | 94 | 206 | 8.7 | 14.8 | 0.00 | 0.00 | 0.00 | 35 | 1017.7 |
| 20260902184656 | 94 | 209 | 11.3 | 15.6 | 0.00 | 0.00 | 0.00 | 35 | 1017.8 |
| 20260902184151 | 94 | 174 | 7.8 | 15.6 | 0.00 | 0.00 | 0.00 | 35 | 1018.1 |
| 20260902183647 | 95 | 187 | 13.0 | 17.4 | 0.00 | 0.00 | 0.00 | 35 | 1018.1 |
| 20260902183143 | 93 | 200 | 10.4 | 11.3 | 0.00 | 0.00 | 0.00 | 35 | 1018.4 |
| 20260902182639 | 93 | 237 | 7.0 | 16.5 | 0.00 | 0.00 | 0.00 | 36 | 1018.6 |
| 20260902182135 | 92 | 211 | 9.6 | 15.6 | 0.00 | 0.00 | 0.00 | 36 | 1018.7 |
| 20260902181631 | 93 | 202 | 7.8 | 17.4 | 0.00 | 0.00 | 0.00 | 36 | 1018.5 |
| 20260902181131 | 94 | 172 | 8.7 | 16.5 | 0.00 | 0.00 | 0.00 | 36 | 1018.7 |
| 20260902180630 | 92 | 211 | 8.7 | 11.3 | 0.00 | 0.00 | 0.00 | 37 | 1018.8 |
| 20260902180126 | 91 | 191 | 11.3 | 14.8 | 0.00 | 0.00 | 0.00 | 38 | 1019.0 |
| 20260902175626 | 91 | 203 | 8.7 | 13.9 | 0.00 | 0.00 | 0.00 | 37 | 1018.9 |
| 20260902175122 | 91 | 203 | 10.4 | 21.7 | 0.00 | 0.00 | 0.00 | 37 | 1018.9 |
| 20260902174618 | 91 | 198 | 12.2 | 13.9 | 0.00 | 0.00 | 0.00 | 38 | 1018.9 |
| 20260902174114 | 93 | 185 | 14.8 | 18.2 | 0.00 | 0.00 | 0.00 | 36 | 1018.9 |
| 20260902173608 | 94 | 208 | 12.2 | 17.4 | 0.00 | 0.00 | 0.00 | 36 | 1018.9 |
| 20260902173103 | 93 | 181 | 12.2 | 17.4 | 0.00 | 0.00 | 0.00 | 36 | 1019.1 |
| 20260902172557 | 92 | 202 | 18.2 | 19.1 | 0.00 | 0.00 | 0.00 | 37 | 1019.1 |
| 20260902172051 | 92 | 211 | 13.0 | 13.9 | 0.00 | 0.00 | 0.00 | 38 | 1019.2 |
| 20260902171547 | 92 | 193 | 9.6 | 17.4 | 0.00 | 0.00 | 0.00 | 38 | 1019.2 |
| 20260902171043 | 92 | 212 | 11.3 | 14.8 | 0.00 | 0.00 | 0.00 | 37 | 1019.4 |
| 20260902170537 | 91 | 214 | 13.0 | 17.4 | 0.00 | 0.00 | 0.00 | 39 | 1019.4 |
| 20260902170033 | 89 | 202 | 10.4 | 14.8 | 0.00 | 0.00 | 0.00 | 40 | 1019.4 |
| 20260902165527 | 90 | 218 | 9.6 | 17.4 | 0.00 | 0.00 | 0.00 | 40 | 1019.5 |
| 20260902165021 | 89 | 206 | 13.0 | 17.4 | 0.00 | 0.00 | 0.00 | 40 | 1019.5 |
| 20260902164516 | 90 | 194 | 8.7 | 13.9 | 0.00 | 0.00 | 0.00 | 39 | 1019.5 |
| 20260902164015 | 90 | 211 | 8.7 | 14.8 | 0.00 | 0.00 | 0.00 | 40 | 1019.6 |
| 20260902163511 | 89 | 214 | 10.4 | 15.6 | 0.00 | 0.00 | 0.00 | 42 | 1019.6 |
| 20260902163009 | 89 | 209 | 11.3 | 14.8 | 0.00 | 0.00 | 0.00 | 42 | 1019.6 |
| 20260902162504 | 87 | 208 | 7.8 | 14.8 | 0.00 | 0.00 | 0.00 | 43 | 1019.7 |
| 20260902161959 | 87 | 211 | 12.2 | 15.6 | 0.00 | 0.00 | 0.00 | 43 | 1019.5 |
| 20260902161454 | 86 | 210 | 10.4 | 14.8 | 0.00 | 0.00 | 0.00 | 44 | 1019.6 |
| 20260902160950 | 87 | 231 | 7.8 | 15.6 | 0.00 | 0.00 | 0.00 | 44 | 1019.5 |
| 20260902160445 | 86 | 217 | 10.4 | 17.4 | 0.00 | 0.00 | 0.00 | 45 | 1019.4 |
| 20260902155943 | 87 | 209 | 13.0 | 16.5 | 0.00 | 0.00 | 0.00 | 43 | 1019.5 |
| 20260902155439 | 86 | 214 | 11.3 | 14.8 | 0.00 | 0.00 | 0.00 | 44 | 1019.6 |
| 20260902154932 | 85 | 219 | 11.3 | 17.4 | 0.00 | 0.00 | 0.00 | 45 | 1019.6 |
| 20260902154428 | 86 | 200 | 11.3 | 14.8 | 0.00 | 0.00 | 0.00 | 45 | 1019.5 |
| 20260902153928 | 84 | 212 | 13.0 | 20.0 | 0.00 | 0.00 | 0.00 | 45 | 1019.4 |
| 20260902153426 | 85 | 208 | 10.4 | 20.0 | 0.00 | 0.00 | 0.00 | 45 | 1019.4 |
| 20260902152922 | 83 | 215 | 9.6 | 14.8 | 0.00 | 0.00 | 0.00 | 45 | 1019.5 |
| 20260902152418 | 84 | 203 | 9.6 | 13.0 | 0.00 | 0.00 | 0.00 | 44 | 1019.4 |
| 20260902151913 | 83 | 197 | 8.7 | 12.2 | 0.00 | 0.00 | 0.00 | 45 | 1019.1 |
| 20260902151409 | 82 | 200 | 9.6 | 13.0 | 0.00 | 0.00 | 0.00 | 46 | 1019.2 |
| 20260902150903 | 82 | 211 | 8.7 | 13.9 | 0.00 | 0.00 | 0.00 | 47 | 1019.6 |
| 20260902150359 | 82 | 213 | 7.0 | 13.0 | 0.00 | 0.00 | 0.00 | 46 | 1019.1 |
| 20260902145858 | 80 | 216 | 5.2 | 15.6 | 0.00 | 0.00 | 0.00 | 48 | 1019.1 |
| 20260902145354 | 79 | 207 | 8.7 | 12.2 | 0.00 | 0.00 | 0.00 | 49 | 1019.2 |
| 20260902144848 | 78 | 175 | 8.7 | 11.3 | 0.00 | 0.00 | 0.00 | 50 | 1019.5 |
| 20260902144345 | 78 | 180 | 5.2 | 9.6 | 0.00 | 0.00 | 0.00 | 51 | 1019.4 |
| 20260902143839 | 77 | 197 | 10.4 | 13.0 | 0.00 | 0.00 | 0.00 | 51 | 1019.5 |
| 20260902143334 | 77 | 196 | 7.0 | 11.3 | 0.00 | 0.00 | 0.00 | 52 | 1019.4 |
| 20260902142830 | 76 | 194 | 9.6 | 11.3 | 0.00 | 0.00 | 0.00 | 52 | 1019.5 |
| 20260902142326 | 76 | 211 | 9.6 | 13.0 | 0.00 | 0.00 | 0.00 | 52 | 1019.2 |
| 20260902141820 | 76 | 201 | 9.6 | 11.3 | 0.00 | 0.00 | 0.00 | 52 | 1019.2 |
| 20260902141316 | 75 | 209 | 9.6 | 13.9 | 0.00 | 0.00 | 0.00 | 53 | 1019.5 |
| 20260902140816 | 76 | 201 | 9.6 | 11.3 | 0.00 | 0.00 | 0.00 | 52 | 1019.1 |
| 20260902140311 | 76 | 192 | 9.6 | 11.3 | 0.00 | 0.00 | 0.00 | 52 | 1019.4 |
| 20260902135810 | 75 | 188 | 8.7 | 11.3 | 0.00 | 0.00 | 0.00 | 54 | 1019.2 |
| 20260902135307 | 74 | 201 | 9.6 | 11.3 | 0.00 | 0.00 | 0.00 | 54 | 1019.1 |
| 20260902134805 | 74 | 196 | 6.1 | 9.6 | 0.00 | 0.00 | 0.00 | 55 | 1019.2 |
| 20260902134301 | 74 | 186 | 6.1 | 11.3 | 0.00 | 0.00 | 0.00 | 55 | 1019.0 |
| 20260902133756 | 75 | 195 | 7.0 | 12.2 | 0.00 | 0.00 | 0.00 | 54 | 1018.8 |
| 20260902133255 | 75 | 193 | 4.3 | 11.3 | 0.00 | 0.00 | 0.00 | 55 | 1019.0 |
| 20260902132750 | 74 | 197 | 8.7 | 11.3 | 0.00 | 0.00 | 0.00 | 55 | 1018.9 |
| 20260902132246 | 74 | 204 | 7.0 | 10.4 | 0.00 | 0.00 | 0.00 | 55 | 1018.9 |
| 20260902131742 | 73 | 204 | 6.1 | 11.3 | 0.00 | 0.00 | 0.00 | 56 | 1018.8 |
| 20260902131238 | 73 | 201 | 7.8 | 9.6 | 0.00 | 0.00 | 0.00 | 57 | 1018.8 |
| 20260902130737 | 72 | 201 | 5.2 | 10.4 | 0.00 | 0.00 | 0.00 | 57 | 1018.8 |
| 20260902130233 | 72 | 210 | 7.0 | 9.6 | 0.00 | 0.00 | 0.00 | 58 | 1018.5 |
| 20260902125728 | 71 | 193 | 6.1 | 8.7 | 0.00 | 0.00 | 0.00 | 59 | 1018.6 |
| 20260902125224 | 71 | 180 | 7.0 | 9.6 | 0.00 | 0.00 | 0.00 | 59 | 1018.5 |
| 20260902124721 | 71 | 193 | 6.1 | 9.6 | 0.00 | 0.00 | 0.00 | 60 | 1018.4 |
| 20260902124216 | 71 | 200 | 5.2 | 10.4 | 0.00 | 0.00 | 0.00 | 60 | 1018.4 |
| 20260902123711 | 70 | 196 | 7.0 | 11.3 | 0.00 | 0.00 | 0.00 | 60 | 1018.4 |
| 20260902123206 | 70 | 198 | 6.1 | 10.4 | 0.00 | 0.00 | 0.00 | 60 | 1018.4 |
| 20260902122700 | 70 | 208 | 6.1 | 10.4 | 0.00 | 0.00 | 0.00 | 60 | 1018.1 |
| 20260902122156 | 69 | 188 | 5.2 | 8.7 | 0.00 | 0.00 | 0.00 | 61 | 1018.0 |
| 20260902121650 | 69 | 196 | 7.0 | 9.6 | 0.00 | 0.00 | 0.00 | 61 | 1017.9 |
| 20260902121145 | 69 | 187 | 7.0 | 7.8 | 0.00 | 0.00 | 0.00 | 61 | 1018.0 |
| 20260902120641 | 70 | 195 | 5.2 | 7.8 | 0.00 | 0.00 | 0.00 | 61 | 1017.9 |
| 20260902120138 | 70 | 191 | 6.1 | 8.7 | 0.00 | 0.00 | 0.00 | 61 | 1017.9 |
| 20260902115637 | 70 | 196 | 6.1 | 9.6 | 0.00 | 0.00 | 0.00 | 61 | 1018.0 |
| 20260902115134 | 69 | 186 | 6.1 | 7.8 | 0.00 | 0.00 | 0.00 | 61 | 1017.8 |
| 20260902114630 | 69 | 184 | 6.1 | 7.8 | 0.00 | 0.00 | 0.00 | 61 | 1017.7 |
| 20260902114129 | 69 | 180 | 6.1 | 7.8 | 0.00 | 0.00 | 0.00 | 61 | 1017.6 |
| 20260902113625 | 69 | 180 | 4.3 | 6.1 | 0.00 | 0.00 | 0.00 | 61 | 1017.7 |
| 20260902113120 | 70 | 178 | 5.2 | 7.0 | 0.00 | 0.00 | 0.00 | 61 | 1017.6 |
| 20260902112615 | 70 | 180 | 6.1 | 7.8 | 0.00 | 0.00 | 0.00 | 60 | 1017.7 |
| 20260902112112 | 70 | 172 | 5.2 | 7.8 | 0.00 | 0.00 | 0.00 | 60 | 1017.8 |
| 20260902111607 | 70 | 179 | 5.2 | 8.7 | 0.00 | 0.00 | 0.00 | 60 | 1017.8 |
| 20260902111103 | 70 | 184 | 6.1 | 8.7 | 0.00 | 0.00 | 0.00 | 60 | 1017.8 |
| 20260902110559 | 69 | 163 | 6.1 | 7.8 | 0.00 | 0.00 | 0.00 | 61 | 1018.0 |
| 20260902110054 | 69 | 153 | 4.3 | 8.7 | 0.00 | 0.00 | 0.00 | 61 | 1017.9 |
| 20260902105549 | 69 | 174 | 4.3 | 5.2 | 0.00 | 0.00 | 0.00 | 62 | 1017.8 |
| 20260902105048 | 69 | 175 | 3.5 | 5.2 | 0.00 | 0.00 | 0.00 | 61 | 1018.0 |
| 20260902104544 | 71 | 203 | 3.5 | 6.1 | 0.00 | 0.00 | 0.00 | 59 | 1018.0 |
| 20260902104039 | 71 | 200 | 6.1 | 7.0 | 0.00 | 0.00 | 0.00 | 58 | 1017.9 |
| 20260902103535 | 70 | 181 | 3.5 | 5.2 | 0.00 | 0.00 | 0.00 | 59 | 1017.6 |
| 20260902103030 | 70 | 199 | 4.3 | 6.1 | 0.00 | 0.00 | 0.00 | 59 | 1018.0 |
| 20260902102526 | 71 | 200 | 7.0 | 7.8 | 0.00 | 0.00 | 0.00 | 58 | 1018.0 |
| 20260902102023 | 71 | 212 | 7.0 | 9.6 | 0.00 | 0.00 | 0.00 | 57 | 1017.9 |
| 20260902101518 | 71 | 191 | 7.0 | 9.6 | 0.00 | 0.00 | 0.00 | 57 | 1017.9 |
| 20260902101016 | 71 | 185 | 7.0 | 8.7 | 0.00 | 0.00 | 0.00 | 57 | 1017.9 |
| 20260902100511 | 71 | 180 | 7.8 | 7.8 | 0.00 | 0.00 | 0.00 | 57 | 1017.8 |
| 20260902100006 | 71 | 166 | 6.1 | 8.7 | 0.00 | 0.00 | 0.00 | 57 | 1018.1 |
| 20260902095500 | 72 | 185 | 7.8 | 8.7 | 0.00 | 0.00 | 0.00 | 56 | 1017.9 |
| 20260902094959 | 72 | 202 | 6.1 | 10.4 | 0.00 | 0.00 | 0.00 | 56 | 1018.0 |
| 20260902094455 | 72 | 200 | 7.8 | 11.3 | 0.00 | 0.00 | 0.00 | 56 | 1018.0 |
| 20260902093950 | 72 | 194 | 7.8 | 11.3 | 0.00 | 0.00 | 0.00 | 56 | 1018.0 |
| 20260902093445 | 72 | 197 | 8.7 | 12.2 | 0.00 | 0.00 | 0.00 | 55 | 1017.8 |
| 20260902092944 | 72 | 201 | 7.0 | 9.6 | 0.00 | 0.00 | 0.00 | 55 | 1017.9 |
| 20260902092440 | 72 | 193 | 6.1 | 10.4 | 0.00 | 0.00 | 0.00 | 55 | 1018.0 |
| 20260902091940 | 72 | 192 | 7.0 | 9.6 | 0.00 | 0.00 | 0.00 | 55 | 1018.1 |
| 20260902091435 | 72 | 183 | 4.3 | 9.6 | 0.00 | 0.00 | 0.00 | 55 | 1017.9 |
| 20260902090931 | 73 | 201 | 4.3 | 10.4 | 0.00 | 0.00 | 0.00 | 55 | 1017.9 |
| 20260902090431 | 73 | 191 | 6.1 | 10.4 | 0.00 | 0.00 | 0.00 | 54 | 1018.1 |
| 20260902085930 | 73 | 189 | 7.0 | 8.7 | 0.00 | 0.00 | 0.00 | 55 | 1018.0 |
| 20260902085426 | 73 | 180 | 5.2 | 9.6 | 0.00 | 0.00 | 0.00 | 54 | 1018.4 |
| 20260902084921 | 73 | 172 | 6.1 | 9.6 | 0.00 | 0.00 | 0.00 | 54 | 1018.0 |
| 20260902084417 | 73 | 183 | 5.2 | 8.7 | 0.00 | 0.00 | 0.00 | 54 | 1018.1 |
| 20260902083913 | 73 | 186 | 7.8 | 8.7 | 0.00 | 0.00 | 0.00 | 54 | 1018.2 |
| 20260902083412 | 73 | 183 | 5.2 | 8.7 | 0.00 | 0.00 | 0.00 | 54 | 1018.2 |
| 20260902082908 | 73 | 185 | 7.0 | 8.7 | 0.00 | 0.00 | 0.00 | 53 | 1018.4 |
| 20260902082403 | 74 | 176 | 6.1 | 10.4 | 0.00 | 0.00 | 0.00 | 52 | 1018.4 |
| 20260902081900 | 74 | 188 | 6.1 | 11.3 | 0.00 | 0.00 | 0.00 | 52 | 1018.2 |
| 20260902081355 | 74 | 180 | 6.1 | 8.7 | 0.00 | 0.00 | 0.00 | 52 | 1018.4 |
| 20260902080851 | 74 | 184 | 6.1 | 8.7 | 0.00 | 0.00 | 0.00 | 52 | 1018.4 |
| 20260902080347 | 74 | 167 | 8.7 | 9.6 | 0.00 | 0.00 | 0.00 | 51 | 1018.4 |
| 20260902075846 | 74 | 185 | 7.8 | 9.6 | 0.00 | 0.00 | 0.00 | 51 | 1018.2 |
| 20260902075342 | 74 | 169 | 6.1 | 10.4 | 0.00 | 0.00 | 0.00 | 51 | 1018.2 |
| 20260902074838 | 74 | 163 | 4.3 | 7.8 | 0.00 | 0.00 | 0.00 | 51 | 1018.6 |
| 20260902074333 | 74 | 165 | 7.0 | 8.7 | 0.00 | 0.00 | 0.00 | 51 | 1018.4 |
| 20260902073828 | 74 | 161 | 4.3 | 7.8 | 0.00 | 0.00 | 0.00 | 52 | 1018.4 |
| 20260902073324 | 74 | 168 | 5.2 | 8.7 | 0.00 | 0.00 | 0.00 | 51 | 1018.5 |
| 20260902072820 | 74 | 168 | 7.0 | 7.8 | 0.00 | 0.00 | 0.00 | 51 | 1018.5 |
| 20260902072315 | 75 | 162 | 6.1 | 9.6 | 0.00 | 0.00 | 0.00 | 50 | 1018.4 |
| 20260902071812 | 75 | 166 | 7.0 | 9.6 | 0.00 | 0.00 | 0.00 | 50 | 1018.7 |
| 20260902071306 | 75 | 168 | 6.1 | 8.7 | 0.00 | 0.00 | 0.00 | 50 | 1018.6 |
| 20260902070803 | 76 | 166 | 6.1 | 10.4 | 0.00 | 0.00 | 0.00 | 49 | 1018.2 |
| 20260902070302 | 76 | 168 | 5.2 | 10.4 | 0.00 | 0.00 | 0.00 | 49 | 1018.2 |
| 20260902065801 | 76 | 173 | 7.0 | 11.3 | 0.00 | 0.00 | 0.00 | 49 | 1018.0 |
| 20260902065256 | 76 | 165 | 5.2 | 9.6 | 0.00 | 0.00 | 0.00 | 49 | 1018.2 |
| 20260902064752 | 76 | 161 | 7.8 | 10.4 | 0.00 | 0.00 | 0.00 | 49 | 1018.1 |
| 20260902064248 | 75 | 158 | 7.0 | 10.4 | 0.00 | 0.00 | 0.00 | 50 | 1018.5 |
| 20260902063743 | 76 | 162 | 6.1 | 10.4 | 0.00 | 0.00 | 0.00 | 49 | 1018.2 |
| 20260902063238 | 75 | 156 | 7.0 | 11.3 | 0.00 | 0.00 | 0.00 | 50 | 1018.1 |
| 20260902062737 | 75 | 155 | 9.6 | 12.2 | 0.00 | 0.00 | 0.00 | 49 | 1018.0 |
| 20260902062232 | 76 | 155 | 8.7 | 10.4 | 0.00 | 0.00 | 0.00 | 49 | 1018.4 |
| 20260902061731 | 76 | 155 | 7.8 | 11.3 | 0.00 | 0.00 | 0.00 | 49 | 1018.4 |
| 20260902061227 | 76 | 159 | 10.4 | 12.2 | 0.00 | 0.00 | 0.00 | 48 | 1018.2 |
| 20260902060724 | 77 | 158 | 7.8 | 13.0 | 0.00 | 0.00 | 0.00 | 48 | 1018.4 |
| 20260902060219 | 77 | 154 | 8.7 | 13.0 | 0.00 | 0.00 | 0.00 | 48 | 1018.1 |
| 20260902055715 | 77 | 157 | 8.7 | 13.0 | 0.00 | 0.00 | 0.00 | 48 | 1018.1 |
| 20260902055211 | 77 | 161 | 8.7 | 13.0 | 0.00 | 0.00 | 0.00 | 48 | 1018.2 |
| 20260902054706 | 77 | 157 | 11.3 | 12.2 | 0.00 | 0.00 | 0.00 | 48 | 1018.4 |
| 20260902054202 | 77 | 158 | 7.8 | 13.0 | 0.00 | 0.00 | 0.00 | 48 | 1018.2 |
| 20260902053657 | 77 | 156 | 9.6 | 13.0 | 0.00 | 0.00 | 0.00 | 48 | 1018.4 |
| 20260902053156 | 77 | 159 | 8.7 | 11.3 | 0.00 | 0.00 | 0.00 | 48 | 1018.4 |
| 20260902052656 | 77 | 156 | 7.8 | 11.3 | 0.00 | 0.00 | 0.00 | 48 | 1018.6 |
| 20260902052151 | 77 | 162 | 10.4 | 10.4 | 0.00 | 0.00 | 0.00 | 48 | 1018.2 |
| 20260902051650 | 78 | 156 | 7.0 | 13.0 | 0.00 | 0.00 | 0.00 | 47 | 1018.2 |
| 20260902051145 | 78 | 164 | 7.8 | 12.2 | 0.00 | 0.00 | 0.00 | 47 | 1018.1 |
| 20260902050639 | 78 | 161 | 7.0 | 11.3 | 0.00 | 0.00 | 0.00 | 47 | 1018.5 |
| 20260902050135 | 78 | 153 | 9.6 | 11.3 | 0.00 | 0.00 | 0.00 | 47 | 1018.2 |
| 20260902045629 | 78 | 155 | 7.8 | 11.3 | 0.00 | 0.00 | 0.00 | 47 | 1018.5 |
| 20260902045126 | 78 | 157 | 8.7 | 11.3 | 0.00 | 0.00 | 0.00 | 46 | 1018.6 |
| 20260902044625 | 79 | 146 | 7.0 | 12.2 | 0.00 | 0.00 | 0.00 | 46 | 1018.4 |
| 20260902044122 | 79 | 154 | 7.0 | 12.2 | 0.00 | 0.00 | 0.00 | 45 | 1018.4 |
| 20260902043617 | 79 | 156 | 10.4 | 12.2 | 0.00 | 0.00 | 0.00 | 45 | 1018.2 |
| 20260902043112 | 79 | 154 | 9.6 | 11.3 | 0.00 | 0.00 | 0.00 | 45 | 1018.1 |
| 20260902042611 | 79 | 155 | 8.7 | 13.0 | 0.00 | 0.00 | 0.00 | 45 | 1018.2 |
| 20260902042107 | 80 | 146 | 7.8 | 13.0 | 0.00 | 0.00 | 0.00 | 45 | 1018.5 |
| 20260902041606 | 80 | 143 | 9.6 | 13.0 | 0.00 | 0.00 | 0.00 | 44 | 1018.4 |
| 20260902041101 | 80 | 150 | 6.1 | 13.0 | 0.00 | 0.00 | 0.00 | 45 | 1018.4 |
| 20260902040555 | 80 | 147 | 8.7 | 13.9 | 0.00 | 0.00 | 0.00 | 44 | 1018.2 |
| 20260902040050 | 80 | 154 | 7.0 | 11.3 | 0.00 | 0.00 | 0.00 | 44 | 1018.5 |
| 20260902035543 | 81 | 152 | 7.0 | 10.4 | 0.00 | 0.00 | 0.00 | 43 | 1018.2 |
| 20260902035039 | 81 | 158 | 7.8 | 12.2 | 0.00 | 0.00 | 0.00 | 43 | 1018.2 |
| 20260902034538 | 81 | 159 | 9.6 | 11.3 | 0.00 | 0.00 | 0.00 | 43 | 1018.2 |
| 20260902034037 | 81 | 164 | 7.0 | 12.2 | 0.00 | 0.00 | 0.00 | 43 | 1018.1 |
| 20260902033537 | 81 | 151 | 7.8 | 10.4 | 0.00 | 0.00 | 0.00 | 42 | 1018.2 |
| 20260902033031 | 82 | 156 | 11.3 | 13.0 | 0.00 | 0.00 | 0.00 | 42 | 1018.0 |
| 20260902032525 | 81 | 156 | 7.8 | 10.4 | 0.00 | 0.00 | 0.00 | 42 | 1018.1 |
| 20260902032020 | 81 | 149 | 8.7 | 11.3 | 0.00 | 0.00 | 0.00 | 42 | 1018.0 |
| 20260902031514 | 82 | 161 | 7.8 | 11.3 | 0.00 | 0.00 | 0.00 | 41 | 1018.1 |
| 20260902031010 | 82 | 151 | 7.8 | 12.2 | 0.00 | 0.00 | 0.00 | 41 | 1018.1 |
| 20260902030505 | 82 | 155 | 7.8 | 10.4 | 0.00 | 0.00 | 0.00 | 41 | 1017.8 |
| 20260902030005 | 82 | 160 | 7.0 | 10.4 | 0.00 | 0.00 | 0.00 | 41 | 1017.7 |
| 20260902025459 | 82 | 156 | 7.8 | 11.3 | 0.00 | 0.00 | 0.00 | 40 | 1017.9 |
| 20260902024954 | 82 | 149 | 6.1 | 10.4 | 0.00 | 0.00 | 0.00 | 40 | 1017.7 |
| 20260902024449 | 82 | 153 | 7.0 | 9.6 | 0.00 | 0.00 | 0.00 | 40 | 1017.7 |
| 20260902023944 | 82 | 156 | 7.0 | 10.4 | 0.00 | 0.00 | 0.00 | 40 | 1017.8 |
| 20260902023441 | 83 | 147 | 7.8 | 10.4 | 0.00 | 0.00 | 0.00 | 40 | 1017.5 |
| 20260902022939 | 83 | 144 | 7.8 | 10.4 | 0.00 | 0.00 | 0.00 | 40 | 1017.5 |
| 20260902022435 | 83 | 154 | 6.1 | 9.6 | 0.00 | 0.00 | 0.00 | 40 | 1017.7 |
| 20260902021930 | 84 | 150 | 7.0 | 8.7 | 0.00 | 0.00 | 0.00 | 39 | 1017.6 |
| 20260902021425 | 84 | 151 | 5.2 | 9.6 | 0.00 | 0.00 | 0.00 | 39 | 1017.6 |
| 20260902020921 | 84 | 157 | 7.0 | 7.8 | 0.00 | 0.00 | 0.00 | 39 | 1017.6 |
| 20260902020417 | 84 | 153 | 7.8 | 10.4 | 0.00 | 0.00 | 0.00 | 39 | 1017.3 |
| 20260902015912 | 84 | 157 | 5.2 | 7.0 | 0.00 | 0.00 | 0.00 | 39 | 1017.3 |
| 20260902015408 | 84 | 155 | 7.0 | 7.8 | 0.00 | 0.00 | 0.00 | 39 | 1017.3 |
| 20260902014903 | 84 | 154 | 5.2 | 8.7 | 0.00 | 0.00 | 0.00 | 38 | 1017.5 |
| 20260902014400 | 84 | 166 | 3.5 | 7.0 | 0.00 | 0.00 | 0.00 | 39 | 1017.3 |
| 20260902013858 | 85 | 156 | 5.2 | 7.8 | 0.00 | 0.00 | 0.00 | 38 | 1017.3 |
| 20260902013354 | 85 | 155 | 5.2 | 7.0 | 0.00 | 0.00 | 0.00 | 38 | 1017.5 |
| 20260902012850 | 85 | 159 | 6.1 | 7.8 | 0.00 | 0.00 | 0.00 | 37 | 1017.3 |
| 20260902012345 | 86 | 153 | 5.2 | 7.8 | 0.00 | 0.00 | 0.00 | 37 | 1017.2 |
| 20260902011841 | 86 | 153 | 4.3 | 7.8 | 0.00 | 0.00 | 0.00 | 37 | 1017.2 |
| 20260902011335 | 86 | 157 | 5.2 | 7.8 | 0.00 | 0.00 | 0.00 | 36 | 1016.9 |
| 20260902010834 | 86 | 166 | 5.2 | 7.8 | 0.00 | 0.00 | 0.00 | 36 | 1017.0 |
| 20260902010329 | 87 | 166 | 6.1 | 7.8 | 0.00 | 0.00 | 0.00 | 35 | 1016.9 |
| 20260902005828 | 87 | 171 | 6.1 | 9.6 | 0.00 | 0.00 | 0.00 | 35 | 1016.9 |
| 20260902005323 | 89 | 169 | 6.1 | 11.3 | 0.00 | 0.00 | 0.00 | 34 | 1017.0 |
| 20260902004818 | 89 | 162 | 7.0 | 10.4 | 0.00 | 0.00 | 0.00 | 34 | 1017.0 |
| 20260902004314 | 89 | 174 | 7.8 | 11.3 | 0.00 | 0.00 | 0.00 | 34 | 1016.9 |
| 20260902003813 | 90 | 165 | 8.7 | 10.4 | 0.00 | 0.00 | 0.00 | 33 | 1016.9 |
| 20260902003309 | 90 | 160 | 8.7 | 11.3 | 0.00 | 0.00 | 0.00 | 33 | 1016.7 |
| 20260902002805 | 90 | 166 | 7.8 | 12.2 | 0.00 | 0.00 | 0.00 | 33 | 1016.6 |
| 20260902002259 | 91 | 169 | 7.8 | 13.0 | 0.00 | 0.00 | 0.00 | 32 | 1016.7 |
| 20260902001755 | 91 | 167 | 10.4 | 13.0 | 0.00 | 0.00 | 0.00 | 32 | 1016.8 |
| 20260902001249 | 91 | 162 | 11.3 | 13.9 | 0.00 | 0.00 | 0.00 | 31 | 1016.6 |
| 20260902000743 | 91 | 181 | 7.8 | 12.2 | 0.00 | 0.00 | 0.00 | 32 | 1016.7 |
| 20260902000238 | 92 | 189 | 10.4 | 15.6 | 0.00 | 0.00 | 0.00 | 31 | 1016.6 |
| 20260901235733 | 93 | 177 | 13.0 | 17.4 | 0.00 | 0.00 | 0.00 | 30 | 1016.6 |
| 20260901235229 | 93 | 184 | 7.8 | 13.9 | 0.00 | 0.00 | 0.00 | 30 | 1016.6 |
| 20260901234727 | 92 | 173 | 8.7 | 14.8 | 0.00 | 0.00 | 0.00 | 29 | 1016.7 |
| 20260901234222 | 92 | 202 | 11.3 | 15.6 | 0.00 | 0.00 | 0.00 | 29 | 1016.6 |
| 20260901233716 | 94 | 183 | 7.8 | 14.8 | 0.00 | 0.00 | 0.00 | 29 | 1016.5 |
| 20260901233212 | 93 | 180 | 13.0 | 15.6 | 0.00 | 0.00 | 0.00 | 28 | 1016.2 |
| 20260901232707 | 93 | 177 | 10.4 | 14.8 | 0.00 | 0.00 | 0.00 | 29 | 1016.1 |
| 20260901232202 | 94 | 205 | 12.2 | 13.0 | 0.00 | 0.00 | 0.00 | 27 | 1016.3 |
| 20260901231659 | 94 | 208 | 12.2 | 17.4 | 0.00 | 0.00 | 0.00 | 28 | 1016.3 |
| 20260901231154 | 94 | 189 | 6.1 | 9.6 | 0.00 | 0.00 | 0.00 | 28 | 1016.3 |
| 20260901230650 | 93 | 190 | 11.3 | 15.6 | 0.00 | 0.00 | 0.00 | 28 | 1016.2 |
| 20260901230150 | 93 | 193 | 13.9 | 16.5 | 0.00 | 0.00 | 0.00 | 29 | 1016.3 |
| 20260901225645 | 93 | 202 | 7.8 | 10.4 | 0.00 | 0.00 | 0.00 | 28 | 1016.3 |
| 20260901225139 | 94 | 201 | 11.3 | 17.4 | 0.00 | 0.00 | 0.00 | 28 | 1016.3 |
| 20260901224636 | 94 | 183 | 8.7 | 14.8 | 0.00 | 0.00 | 0.00 | 27 | 1016.6 |
| 20260901224132 | 93 | 207 | 10.4 | 15.6 | 0.00 | 0.00 | 0.00 | 28 | 1016.7 |
| 20260901223627 | 93 | 217 | 13.0 | 18.2 | 0.00 | 0.00 | 0.00 | 28 | 1016.3 |
| 20260901223122 | 94 | 157 | 7.8 | 13.0 | 0.00 | 0.00 | 0.00 | 27 | 1016.6 |
| 20260901222618 | 94 | 203 | 11.3 | 13.9 | 0.00 | 0.00 | 0.00 | 27 | 1016.6 |
| 20260901222114 | 95 | 203 | 10.4 | 15.6 | 0.00 | 0.00 | 0.00 | 27 | 1016.6 |
| 20260901221610 | 96 | 196 | 11.3 | 13.9 | 0.00 | 0.00 | 0.00 | 27 | 1016.8 |
| 20260901221106 | 95 | 198 | 9.6 | 13.9 | 0.00 | 0.00 | 0.00 | 27 | 1016.8 |
| 20260901220605 | 95 | 159 | 12.2 | 15.6 | 0.00 | 0.00 | 0.00 | 27 | 1016.8 |
| 20260901220104 | 94 | 204 | 9.6 | 15.6 | 0.00 | 0.00 | 0.00 | 28 | 1016.5 |
| 20260901215602 | 94 | 186 | 7.0 | 14.8 | 0.00 | 0.00 | 0.00 | 28 | 1016.8 |
| 20260901215056 | 95 | 185 | 11.3 | 19.1 | 0.00 | 0.00 | 0.00 | 28 | 1016.8 |
| 20260901214555 | 94 | 167 | 9.6 | 13.9 | 0.00 | 0.00 | 0.00 | 28 | 1017.0 |
| 20260901214049 | 95 | 176 | 8.7 | 15.6 | 0.00 | 0.00 | 0.00 | 27 | 1016.9 |
| 20260901213543 | 95 | 181 | 11.3 | 17.4 | 0.00 | 0.00 | 0.00 | 28 | 1017.1 |
| 20260901213038 | 94 | 190 | 8.7 | 8.7 | 0.00 | 0.00 | 0.00 | 28 | 1017.2 |
| 20260901212537 | 95 | 187 | 7.0 | 14.8 | 0.00 | 0.00 | 0.00 | 29 | 1017.3 |
| 20260901212034 | 92 | 174 | 7.8 | 13.0 | 0.00 | 0.00 | 0.00 | 31 | 1017.5 |
| 20260901211529 | 92 | 156 | 11.3 | 15.6 | 0.00 | 0.00 | 0.00 | 31 | 1017.5 |
| 20260901211026 | 94 | 171 | 7.8 | 13.9 | 0.00 | 0.00 | 0.00 | 31 | 1017.3 |
| 20260901210521 | 95 | 162 | 7.8 | 14.8 | 0.00 | 0.00 | 0.00 | 30 | 1017.6 |
| 20260901210017 | 93 | 163 | 10.4 | 17.4 | 0.00 | 0.00 | 0.00 | 31 | 1017.6 |
| 20260901205512 | 93 | 221 | 9.6 | 17.4 | 0.00 | 0.00 | 0.00 | 29 | 1017.8 |
| 20260901205012 | 93 | 195 | 6.1 | 10.4 | 0.00 | 0.00 | 0.00 | 31 | 1017.8 |
| 20260901204508 | 95 | 187 | 12.2 | 19.1 | 0.00 | 0.00 | 0.00 | 30 | 1017.9 |
| 20260901204003 | 94 | 212 | 12.2 | 14.8 | 0.00 | 0.00 | 0.00 | 31 | 1018.0 |
| 20260901203458 | 92 | 209 | 7.8 | 11.3 | 0.00 | 0.00 | 0.00 | 32 | 1018.0 |
| 20260901202958 | 95 | 180 | 8.7 | 15.6 | 0.00 | 0.00 | 0.00 | 30 | 1018.1 |
| 20260901202453 | 94 | 207 | 13.0 | 16.5 | 0.00 | 0.00 | 0.00 | 31 | 1018.4 |
| 20260901201943 | 94 | 190 | 9.6 | 17.4 | 0.00 | 0.00 | 0.00 | 31 | 1018.4 |
| 20260901201438 | 92 | 220 | 7.8 | 10.4 | 0.00 | 0.00 | 0.00 | 32 | 1018.5 |
| 20260901200937 | 93 | 174 | 9.6 | 10.4 | 0.00 | 0.00 | 0.00 | 31 | 1018.2 |
| 20260901200427 | 92 | 171 | 10.4 | 13.9 | 0.00 | 0.00 | 0.00 | 33 | 1018.6 |
| 20260901195926 | 93 | 170 | 9.6 | 13.0 | 0.00 | 0.00 | 0.00 | 32 | 1018.6 |
| 20260901195425 | 94 | 168 | 11.3 | 15.6 | 0.00 | 0.00 | 0.00 | 31 | 1018.7 |